Time,TemperatureF,DewpointF,PressureIn,WindDirection,WindDirectionDegrees,WindSpeedMPH,WindSpeedGustMPH,Humidity,HourlyPrecipIn,Conditions,Clouds,dailyrainin,SoftwareType,DateUTC
2013-05-12 00:10:00,61.0,58.0,30.11,NNW,345,0.0,0.0,88,0.00,,,0.00,weatherlink.com 1.10,2013-05-12 05:10:00,
2013-05-12 00:25:00,60.7,57.0,30.11,NNW,345,0.0,1.0,88,0.00,,,0.00,weatherlink.com 1.10,2013-05-12 05:25:00,
2013-05-12 00:40:00,60.2,57.0,30.11,NNW,345,0.0,0.0,88,0.00,,,0.00,weatherlink.com 1.10,2013-05-12 05:40:00,
2013-05-12 00:55:00,59.7,56.0,30.11,NNW,345,0.0,0.0,88,0.00,,,0.00,weatherlink.com 1.10,2013-05-12 05:55:00,
2013-05-12 01:10:00,59.5,56.0,30.11,NNW,345,0.0,0.0,88,0.00,,,0.00,weatherlink.com 1.10,2013-05-12 06:10:00,
2013-05-12 01:25:00,58.6,55.0,30.10,NNW,345,0.0,0.0,89,0.00,,,0.00,weatherlink.com 1.10,2013-05-12 06:25:00,
2013-05-12 01:40:00,58.2,55.0,30.10,NNW,345,0.0,0.0,89,0.00,,,0.00,weatherlink.com 1.10,2013-05-12 06:40:00,
2013-05-12 01:55:00,57.7,55.0,30.10,NNW,345,0.0,0.0,89,0.00,,,0.00,weatherlink.com 1.10,2013-05-12 06:55:00,
2013-05-12 02:10:00,57.6,54.0,30.09,NNW,345,0.0,0.0,89,0.00,,,0.00,weatherlink.com 1.10,2013-05-12 07:10:00,
2013-05-12 02:25:00,57.2,54.0,30.09,NNW,345,0.0,0.0,89,0.00,,,0.00,weatherlink.com 1.10,2013-05-12 07:25:00,
2013-05-12 02:40:00,56.9,54.0,30.09,NNW,345,0.0,0.0,89,0.00,,,0.00,weatherlink.com 1.10,2013-05-12 07:40:00,
2013-05-12 02:55:00,56.7,54.0,30.09,NNW,345,0.0,0.0,89,0.00,,,0.00,weatherlink.com 1.10,2013-05-12 07:55:00,
2013-05-12 03:10:00,56.7,54.0,30.09,NNW,345,0.0,0.0,89,0.00,,,0.00,weatherlink.com 1.10,2013-05-12 08:10:00,
2013-05-12 03:25:00,56.3,53.0,30.10,NNW,345,0.0,0.0,89,0.00,,,0.00,weatherlink.com 1.10,2013-05-12 08:25:00,
2013-05-12 03:40:00,56.0,53.0,30.11,NNW,345,0.0,0.0,89,0.00,,,0.00,weatherlink.com 1.10,2013-05-12 08:40:00,
2013-05-12 03:55:00,55.6,53.0,30.11,NNW,345,0.0,0.0,89,0.00,,,0.00,weatherlink.com 1.10,2013-05-12 08:55:00,
2013-05-12 04:10:00,55.4,52.0,30.11,NNW,345,0.0,0.0,89,0.00,,,0.00,weatherlink.com 1.10,2013-05-12 09:10:00,
2013-05-12 04:25:00,55.3,52.0,30.11,NNW,345,0.0,0.0,89,0.00,,,0.00,weatherlink.com 1.10,2013-05-12 09:25:00,
2013-05-12 04:40:00,55.0,52.0,30.11,NNW,345,0.0,0.0,89,0.00,,,0.00,weatherlink.com 1.10,2013-05-12 09:40:00,
2013-05-12 04:55:00,54.9,52.0,30.12,NNW,345,0.0,0.0,89,0.00,,,0.00,weatherlink.com 1.10,2013-05-12 09:55:00,
2013-05-12 05:10:00,54.1,51.0,30.13,NNW,345,0.0,2.0,89,0.00,,,0.00,weatherlink.com 1.10,2013-05-12 10:10:00,
2013-05-12 05:25:00,54.3,51.0,30.12,NNW,345,0.0,0.0,89,0.00,,,0.00,weatherlink.com 1.10,2013-05-12 10:25:00,
2013-05-12 05:40:00,54.1,51.0,30.13,NNW,345,0.0,0.0,89,0.00,,,0.00,weatherlink.com 1.10,2013-05-12 10:40:00,
2013-05-12 05:55:00,53.9,51.0,30.13,NNW,345,0.0,0.0,89,0.00,,,0.00,weatherlink.com 1.10,2013-05-12 10:55:00,
2013-05-12 06:10:00,53.7,51.0,30.13,NNW,345,0.0,0.0,89,0.00,,,0.00,weatherlink.com 1.10,2013-05-12 11:10:00,
2013-05-12 06:25:00,53.6,51.0,30.14,NNW,345,0.0,0.0,89,0.00,,,0.00,weatherlink.com 1.10,2013-05-12 11:25:00,
2013-05-12 06:40:00,53.7,51.0,30.14,NNW,345,0.0,2.0,89,0.00,,,0.00,weatherlink.com 1.10,2013-05-12 11:40:00,
2013-05-12 06:55:00,54.4,51.0,30.15,NNW,330,0.0,5.0,89,0.00,,,0.00,weatherlink.com 1.10,2013-05-12 11:55:00,
2013-05-12 07:10:00,55.4,52.0,30.16,WSW,255,0.0,4.0,89,0.00,,,0.00,weatherlink.com 1.10,2013-05-12 12:10:00,
2013-05-12 07:25:00,56.4,53.0,30.16,WNW,298,1.0,2.0,89,0.00,,,0.00,weatherlink.com 1.10,2013-05-12 12:25:00,
2013-05-12 07:40:00,58.0,55.0,30.17,NW,313,0.0,3.0,89,0.00,,,0.00,weatherlink.com 1.10,2013-05-12 12:40:00,
2013-05-12 07:55:00,59.3,56.0,30.18,WNW,297,0.0,3.0,87,0.00,,,0.00,weatherlink.com 1.10,2013-05-12 12:55:00,
2013-05-12 08:10:00,60.0,55.0,30.18,West,279,3.0,7.0,84,0.00,,,0.00,weatherlink.com 1.10,2013-05-12 13:10:00,
2013-05-12 08:25:00,60.8,54.0,30.19,WNW,292,0.0,7.0,79,0.00,,,0.00,weatherlink.com 1.10,2013-05-12 13:25:00,
2013-05-12 08:40:00,61.3,54.0,30.20,NE,36,0.0,6.0,76,0.00,,,0.00,weatherlink.com 1.10,2013-05-12 13:40:00,
2013-05-12 08:56:00,61.9,54.0,30.20,WNW,282,0.0,4.0,74,0.00,,,0.00,weatherlink.com 1.10,2013-05-12 13:56:00,
2013-05-12 09:11:00,62.4,53.0,30.20,West,265,0.0,5.0,72,0.00,,,0.00,weatherlink.com 1.10,2013-05-12 14:11:00,
2013-05-12 09:26:00,63.3,53.0,30.20,SW,229,0.0,9.0,69,0.00,,,0.00,weatherlink.com 1.10,2013-05-12 14:26:00,
2013-05-12 09:41:00,64.0,51.0,30.20,West,280,0.0,8.0,64,0.00,,,0.00,weatherlink.com 1.10,2013-05-12 14:41:00,
2013-05-12 09:56:00,65.3,51.0,30.21,WSW,253,4.0,8.0,61,0.00,,,0.00,weatherlink.com 1.10,2013-05-12 14:56:00,
2013-05-12 10:11:00,66.6,51.0,30.21,West,278,1.0,12.0,57,0.00,,,0.00,weatherlink.com 1.10,2013-05-12 15:11:00,
2013-05-12 10:26:00,66.8,51.0,30.21,SW,222,0.0,6.0,57,0.00,,,0.00,weatherlink.com 1.10,2013-05-12 15:26:00,
2013-05-12 10:41:00,67.0,52.0,30.21,WNW,290,4.0,6.0,58,0.00,,,0.00,weatherlink.com 1.10,2013-05-12 15:41:00,
2013-05-12 10:56:00,69.0,51.0,30.21,NNW,345,0.0,6.0,53,0.00,,,0.00,weatherlink.com 1.10,2013-05-12 15:56:00,
2013-05-12 11:11:00,69.8,53.0,30.21,West,263,3.0,9.0,55,0.00,,,0.00,weatherlink.com 1.10,2013-05-12 16:11:00,
2013-05-12 11:26:00,69.7,52.0,30.21,WNW,299,4.0,7.0,53,0.00,,,0.00,weatherlink.com 1.10,2013-05-12 16:26:00,
2013-05-12 11:41:00,69.9,50.0,30.21,NW,308,1.0,7.0,50,0.00,,,0.00,weatherlink.com 1.10,2013-05-12 16:41:00,
2013-05-12 11:56:00,70.4,51.0,30.22,West,280,0.0,10.0,51,0.00,,,0.00,weatherlink.com 1.10,2013-05-12 16:56:00,
2013-05-12 12:11:00,71.4,52.0,30.21,WNW,299,8.0,8.0,51,0.00,,,0.00,weatherlink.com 1.10,2013-05-12 17:11:00,
2013-05-12 12:26:00,71.6,52.0,30.21,WNW,293,0.0,9.0,51,0.00,,,0.00,weatherlink.com 1.10,2013-05-12 17:26:00,
2013-05-12 12:41:00,70.9,51.0,30.21,NW,304,1.0,8.0,49,0.00,,,0.00,weatherlink.com 1.10,2013-05-12 17:41:00,
2013-05-12 12:56:00,71.8,53.0,30.21,East,81,0.0,8.0,52,0.00,,,0.00,weatherlink.com 1.10,2013-05-12 17:56:00,
2013-05-12 13:11:00,72.2,53.0,30.21,NE,39,4.0,6.0,51,0.00,,,0.00,weatherlink.com 1.10,2013-05-12 18:11:00,
2013-05-12 13:26:00,72.0,52.0,30.21,NW,311,3.0,6.0,50,0.00,,,0.00,weatherlink.com 1.10,2013-05-12 18:26:00,
2013-05-12 13:41:00,72.7,54.0,30.21,WNW,290,0.0,1.0,53,0.00,,,0.00,weatherlink.com 1.10,2013-05-12 18:41:00,
2013-05-12 13:56:00,73.5,54.0,30.20,WNW,299,3.0,7.0,51,0.00,,,0.00,weatherlink.com 1.10,2013-05-12 18:56:00,
2013-05-12 14:11:00,74.6,52.0,30.20,SW,232,0.0,5.0,46,0.00,,,0.00,weatherlink.com 1.10,2013-05-12 19:11:00,
2013-05-12 14:26:00,74.4,53.0,30.20,North,350,0.0,6.0,47,0.00,,,0.00,weatherlink.com 1.10,2013-05-12 19:26:00,
2013-05-12 14:41:00,73.4,54.0,30.19,NW,305,0.0,6.0,50,0.00,,,0.00,weatherlink.com 1.10,2013-05-12 19:41:00,
2013-05-12 14:56:00,74.7,54.0,30.19,WNW,300,1.0,7.0,49,0.00,,,0.00,weatherlink.com 1.10,2013-05-12 19:56:00,
2013-05-12 15:11:00,75.0,53.0,30.18,SSW,209,0.0,1.0,47,0.00,,,0.00,weatherlink.com 1.10,2013-05-12 20:11:00,
2013-05-12 15:26:00,75.4,54.0,30.16,WNW,287,4.0,5.0,47,0.00,,,0.00,weatherlink.com 1.10,2013-05-12 20:26:00,
2013-05-12 15:41:00,75.6,53.0,30.17,NNE,22,0.0,6.0,46,0.00,,,0.00,weatherlink.com 1.10,2013-05-12 20:41:00,
2013-05-12 15:56:00,75.3,52.0,30.16,West,274,1.0,10.0,45,0.00,,,0.00,weatherlink.com 1.10,2013-05-12 20:56:00,
2013-05-12 16:11:00,74.5,52.0,30.16,SSW,198,1.0,6.0,45,0.00,,,0.00,weatherlink.com 1.10,2013-05-12 21:11:00,
2013-05-12 16:26:00,74.4,54.0,30.15,NW,319,1.0,5.0,49,0.00,,,0.00,weatherlink.com 1.10,2013-05-12 21:26:00,
2013-05-12 16:41:00,75.4,52.0,30.15,ESE,120,0.0,5.0,44,0.00,,,0.00,weatherlink.com 1.10,2013-05-12 21:41:00,
2013-05-12 16:56:00,76.3,51.0,30.15,NW,320,0.0,6.0,42,0.00,,,0.00,weatherlink.com 1.10,2013-05-12 21:56:00,
2013-05-12 17:12:00,76.8,51.0,30.15,ENE,70,2.0,6.0,41,0.00,,,0.00,weatherlink.com 1.10,2013-05-12 22:12:00,
2013-05-12 17:26:00,76.2,51.0,30.14,WNW,293,1.0,6.0,41,0.00,,,0.00,weatherlink.com 1.10,2013-05-12 22:26:00,
2013-05-12 17:42:00,76.1,50.0,30.14,WSW,238,0.0,5.0,40,0.00,,,0.00,weatherlink.com 1.10,2013-05-12 22:42:00,
2013-05-12 17:57:00,75.5,52.0,30.13,NNE,26,0.0,6.0,44,0.00,,,0.00,weatherlink.com 1.10,2013-05-12 22:57:00,
2013-05-12 18:12:00,76.1,51.0,30.14,WNW,282,0.0,3.0,41,0.00,,,0.00,weatherlink.com 1.10,2013-05-12 23:12:00,
2013-05-12 18:27:00,75.7,48.0,30.14,West,280,6.0,8.0,38,0.00,,,0.00,weatherlink.com 1.10,2013-05-12 23:27:00,
2013-05-12 18:42:00,74.9,47.0,30.14,WNW,289,0.0,4.0,37,0.00,,,0.00,weatherlink.com 1.10,2013-05-12 23:42:00,
2013-05-12 18:57:00,73.1,49.0,30.14,West,265,0.0,4.0,42,0.00,,,0.00,weatherlink.com 1.10,2013-05-12 23:57:00,
2013-05-12 19:12:00,71.3,50.0,30.14,West,265,0.0,1.0,47,0.00,,,0.00,weatherlink.com 1.10,2013-05-13 00:12:00,
2013-05-12 19:27:00,69.9,52.0,30.14,West,265,0.0,0.0,54,0.00,,,0.00,weatherlink.com 1.10,2013-05-13 00:27:00,
2013-05-12 19:42:00,68.2,51.0,30.14,West,265,0.0,0.0,54,0.00,,,0.00,weatherlink.com 1.10,2013-05-13 00:42:00,
2013-05-12 19:57:00,66.3,52.0,30.14,West,265,0.0,0.0,60,0.00,,,0.00,weatherlink.com 1.10,2013-05-13 00:57:00,
2013-05-12 20:12:00,64.1,54.0,30.14,West,265,0.0,0.0,69,0.00,,,0.00,weatherlink.com 1.10,2013-05-13 01:12:00,
2013-05-12 20:27:00,62.1,53.0,30.15,West,265,0.0,0.0,72,0.00,,,0.00,weatherlink.com 1.10,2013-05-13 01:27:00,
2013-05-12 20:42:00,60.2,52.0,30.16,West,265,0.0,1.0,75,0.00,,,0.00,weatherlink.com 1.10,2013-05-13 01:42:00,
2013-05-12 20:57:00,59.3,52.0,30.16,West,265,0.0,0.0,77,0.00,,,0.00,weatherlink.com 1.10,2013-05-13 01:57:00,
2013-05-12 21:12:00,58.4,53.0,30.17,West,265,0.0,0.0,82,0.00,,,0.00,weatherlink.com 1.10,2013-05-13 02:12:00,
2013-05-12 21:27:00,57.9,53.0,30.17,West,265,0.0,0.0,83,0.00,,,0.00,weatherlink.com 1.10,2013-05-13 02:27:00,
2013-05-12 21:42:00,57.0,53.0,30.18,West,265,0.0,0.0,85,0.00,,,0.00,weatherlink.com 1.10,2013-05-13 02:42:00,
2013-05-12 21:57:00,56.3,52.0,30.18,West,265,0.0,0.0,86,0.00,,,0.00,weatherlink.com 1.10,2013-05-13 02:57:00,
2013-05-12 22:12:00,55.7,52.0,30.18,West,265,0.0,0.0,87,0.00,,,0.00,weatherlink.com 1.10,2013-05-13 03:12:00,
2013-05-12 22:27:00,55.1,51.0,30.19,West,265,0.0,0.0,87,0.00,,,0.00,weatherlink.com 1.10,2013-05-13 03:27:00,
2013-05-12 22:42:00,54.6,51.0,30.19,West,265,0.0,0.0,88,0.00,,,0.00,weatherlink.com 1.10,2013-05-13 03:42:00,
2013-05-12 22:57:00,54.1,51.0,30.20,West,265,0.0,0.0,88,0.00,,,0.00,weatherlink.com 1.10,2013-05-13 03:57:00,
2013-05-12 23:12:00,53.6,50.0,30.20,West,265,0.0,0.0,88,0.00,,,0.00,weatherlink.com 1.10,2013-05-13 04:12:00,
2013-05-12 23:27:00,53.3,50.0,30.21,West,265,0.0,0.0,89,0.00,,,0.00,weatherlink.com 1.10,2013-05-13 04:27:00,
2013-05-12 23:42:00,53.1,50.0,30.20,West,265,0.0,0.0,89,0.00,,,0.00,weatherlink.com 1.10,2013-05-13 04:42:00,
2013-05-12 23:57:00,52.8,50.0,30.20,West,265,0.0,0.0,89,0.00,,,0.00,weatherlink.com 1.10,2013-05-13 04:57:00,